GFSNGP_prec_precacc_111.txt.gz
Total_Precipitation_Accumulation
0.01 0.01 0.00 0.01 0.00 0.00 0.02 0.07 0.26 0.13 0.01 0.00 0.00 0.01 0.02 0.06 0.07 0.07 0.14 0.08 0.03 0.10 0.18 0.19 0.25 0.29 0.28 0.26 0.28 0.37 0.42 0.48 0.42 0.56 0.93 0.98 1.04 0.89 0.70 0.49 0.41 0.32 0.24 0.18
0.02 0.00 0.00 0.00 0.00 0.00 0.00 0.00 0.00 0.00 0.00 0.00 0.00 0.00 0.00 0.01 0.03 0.14 0.21 0.06 0.04 0.04 0.13 0.18 0.28 0.29 0.30 0.33 0.28 0.29 0.29 0.30 0.48 0.62 0.54 0.59 0.53 0.39 0.26 0.21 0.22 0.20 0.19 0.18
0.09 0.02 0.05 0.05 0.00 0.00 0.00 0.00 0.00 0.00 0.00 0.00 0.00 0.03 0.05 0.08 0.07 0.08 0.08 0.04 0.03 0.02 0.06 0.19 0.21 0.24 0.29 0.37 0.37 0.24 0.19 0.21 0.28 0.28 0.25 0.20 0.13 0.13 0.18 0.19 0.16 0.14 0.12 0.12
0.26 0.16 0.25 0.03 0.00 0.00 0.00 0.01 0.01 0.02 0.01 0.01 0.01 0.09 0.06 0.03 0.03 0.04 0.03 0.05 0.04 0.01 0.01 0.03 0.09 0.15 0.24 0.30 0.39 0.36 0.21 0.12 0.09 0.07 0.05 0.06 0.10 0.17 0.17 0.18 0.15 0.14 0.19 0.29
0.41 0.26 0.12 0.02 0.03 0.07 0.07 0.15 0.11 0.07 0.07 0.04 0.04 0.08 0.08 0.03 0.06 0.08 0.06 0.05 0.01 0.00 0.00 0.00 0.01 0.09 0.24 0.33 0.38 0.36 0.29 0.21 0.08 0.04 0.06 0.11 0.16 0.20 0.18 0.16 0.20 0.22 0.28 0.31
0.50 0.33 0.10 0.05 0.05 0.03 0.07 0.26 0.22 0.16 0.19 0.18 0.13 0.24 0.15 0.08 0.09 0.07 0.03 0.00 0.00 0.00 0.00 0.01 0.06 0.14 0.09 0.11 0.13 0.16 0.16 0.18 0.19 0.12 0.12 0.15 0.13 0.10 0.12 0.16 0.22 0.25 0.30 0.29
0.29 0.47 0.11 0.01 0.05 0.07 0.35 0.49 0.16 0.16 0.19 0.12 0.16 0.23 0.19 0.18 0.05 0.00 0.00 0.00 0.00 0.00 0.00 0.00 0.05 0.16 0.26 0.21 0.13 0.16 0.19 0.20 0.18 0.15 0.13 0.08 0.08 0.10 0.14 0.18 0.19 0.20 0.19 0.14
0.47 0.58 0.17 0.05 0.24 0.50 0.51 0.20 0.17 0.12 0.08 0.09 0.11 0.20 0.19 0.05 0.02 0.00 0.00 0.00 0.00 0.00 0.00 0.01 0.02 0.05 0.16 0.28 0.23 0.22 0.19 0.21 0.26 0.23 0.13 0.07 0.05 0.07 0.10 0.13 0.17 0.16 0.17 0.17
0.40 0.27 0.08 0.10 0.27 0.37 0.20 0.17 0.17 0.16 0.13 0.19 0.28 0.19 0.07 0.04 0.01 0.00 0.00 0.00 0.00 0.01 0.02 0.02 0.00 0.00 0.04 0.09 0.14 0.15 0.19 0.31 0.31 0.26 0.24 0.22 0.19 0.14 0.16 0.16 0.17 0.19 0.21 0.26
0.30 0.09 0.11 0.17 0.17 0.20 0.16 0.11 0.16 0.23 0.31 0.34 0.25 0.16 0.11 0.04 0.02 0.01 0.01 0.01 0.02 0.03 0.02 0.01 0.00 0.01 0.01 0.02 0.05 0.07 0.08 0.09 0.11 0.12 0.11 0.15 0.26 0.30 0.31 0.32 0.35 0.39 0.41 0.49
0.66 0.83 0.44 0.18 0.16 0.17 0.22 0.32 0.30 0.24 0.23 0.27 0.36 0.31 0.26 0.23 0.09 0.03 0.05 0.06 0.05 0.06 0.05 0.03 0.03 0.03 0.03 0.07 0.09 0.08 0.07 0.08 0.08 0.11 0.12 0.12 0.20 0.28 0.31 0.50 0.50 0.57 0.63 0.71
0.57 0.47 0.64 0.32 0.34 0.42 0.38 0.27 0.18 0.14 0.22 0.17 0.09 0.10 0.15 0.19 0.29 0.30 0.22 0.19 0.17 0.13 0.08 0.07 0.07 0.09 0.09 0.10 0.12 0.13 0.14 0.17 0.23 0.17 0.20 0.24 0.33 0.62 0.72 0.80 0.86 0.88 0.95 0.95
0.18 0.16 0.25 0.34 0.36 0.23 0.22 0.16 0.07 0.04 0.04 0.02 0.02 0.05 0.15 0.30 0.40 0.42 0.40 0.33 0.28 0.31 0.28 0.15 0.11 0.12 0.12 0.12 0.13 0.17 0.20 0.23 0.31 0.36 0.44 0.49 0.56 0.60 0.84 0.94 0.79 0.66 0.56 0.43
0.07 0.12 0.22 0.23 0.22 0.17 0.09 0.07 0.04 0.04 0.06 0.06 0.06 0.05 0.11 0.29 0.82 1.22 1.12 0.77 0.54 0.43 0.41 0.47 0.50 0.59 0.58 0.51 0.50 0.56 0.67 0.76 0.72 0.77 0.77 0.78 0.77 0.78 0.69 0.64 0.59 0.50 0.39 0.32
0.02 0.05 0.12 0.07 0.04 0.07 0.06 0.06 0.04 0.06 0.12 0.15 0.09 0.11 0.23 0.39 0.57 0.83 1.32 1.46 1.39 1.31 1.34 1.24 1.18 1.54 1.53 1.41 1.32 1.28 1.18 1.12 1.02 0.98 0.86 0.75 0.65 0.52 0.41 0.33 0.30 0.28 0.23 0.20
0.01 0.01 0.02 0.04 0.04 0.05 0.04 0.05 0.08 0.08 0.03 0.02 0.08 0.20 0.17 0.28 0.36 0.45 0.71 0.96 1.12 1.46 1.73 1.76 1.79 1.77 1.44 1.25 1.05 0.93 0.83 0.69 0.54 0.44 0.40 0.36 0.33 0.29 0.28 0.27 0.28 0.29 0.27 0.28
0.01 0.02 0.04 0.05 0.08 0.08 0.07 0.04 0.02 0.03 0.02 0.03 0.06 0.08 0.08 0.15 0.28 0.59 0.91 0.97 1.12 1.27 1.28 1.15 1.11 0.93 0.69 0.59 0.50 0.44 0.39 0.35 0.28 0.22 0.19 0.19 0.21 0.23 0.23 0.25 0.24 0.21 0.24 0.23
0.01 0.02 0.06 0.11 0.06 0.01 0.00 0.01 0.02 0.04 0.06 0.09 0.22 0.36 0.41 0.48 0.69 1.04 1.36 1.30 0.86 0.78 0.83 0.77 0.58 0.41 0.34 0.32 0.24 0.17 0.14 0.12 0.12 0.14 0.14 0.16 0.17 0.17 0.17 0.19 0.20 0.20 0.19 0.16
0.10 0.09 0.05 0.02 0.02 0.02 0.03 0.04 0.08 0.13 0.21 0.28 0.38 0.64 0.81 0.89 0.85 0.81 0.81 0.77 0.78 0.64 0.63 0.35 0.26 0.18 0.15 0.14 0.12 0.13 0.13 0.14 0.14 0.12 0.14 0.14 0.14 0.19 0.27 0.27 0.24 0.24 0.22 0.19
0.04 0.04 0.04 0.05 0.06 0.07 0.11 0.19 0.25 0.34 0.44 0.41 0.47 0.56 0.56 0.62 0.53 0.55 0.50 0.45 0.39 0.31 0.20 0.14 0.11 0.09 0.07 0.06 0.05 0.09 0.11 0.14 0.13 0.14 0.20 0.23 0.30 0.28 0.22 0.20 0.21 0.22 0.22 0.25
0.26 0.10 0.11 0.14 0.18 0.28 0.38 0.42 0.38 0.48 0.65 0.52 0.43 0.55 0.60 0.76 0.72 0.63 0.47 0.35 0.30 0.17 0.14 0.10 0.06 0.04 0.05 0.07 0.08 0.12 0.19 0.22 0.27 0.31 0.26 0.25 0.21 0.19 0.20 0.18 0.20 0.21 0.21 0.21
0.59 0.61 0.49 0.46 0.47 0.58 0.62 0.60 0.45 0.49 0.53 0.60 0.63 0.61 0.57 0.64 0.59 0.52 0.39 0.28 0.23 0.17 0.13 0.11 0.08 0.08 0.10 0.13 0.16 0.19 0.22 0.24 0.22 0.19 0.20 0.20 0.20 0.20 0.17 0.16 0.17 0.17 0.17 0.17
0.79 0.84 0.88 0.78 0.68 0.78 0.85 0.73 0.74 0.60 0.64 0.63 0.61 0.58 0.47 0.47 0.41 0.26 0.26 0.20 0.13 0.11 0.12 0.13 0.11 0.12 0.12 0.17 0.22 0.22 0.22 0.19 0.17 0.17 0.18 0.19 0.20 0.20 0.19 0.17 0.15 0.16 0.15 0.15
0.77 0.70 0.75 0.77 0.65 0.48 0.58 0.74 0.64 0.59 0.52 0.55 0.52 0.49 0.37 0.29 0.29 0.22 0.17 0.15 0.14 0.15 0.16 0.15 0.10 0.09 0.14 0.21 0.19 0.18 0.19 0.16 0.15 0.17 0.17 0.17 0.19 0.18 0.18 0.16 0.15 0.12 0.13 0.13
0.62 0.57 0.52 0.52 0.50 0.55 0.48 0.47 0.44 0.49 0.46 0.50 0.48 0.36 0.26 0.21 0.24 0.22 0.18 0.17 0.14 0.15 0.18 0.15 0.09 0.11 0.16 0.18 0.17 0.17 0.18 0.16 0.16 0.19 0.21 0.19 0.17 0.17 0.16 0.15 0.14 0.14 0.14 0.12
0.62 0.61 0.56 0.48 0.49 0.46 0.43 0.42 0.44 0.52 0.45 0.41 0.37 0.28 0.25 0.20 0.18 0.16 0.13 0.12 0.10 0.11 0.14 0.17 0.15 0.16 0.16 0.16 0.16 0.16 0.16 0.15 0.15 0.16 0.17 0.16 0.16 0.16 0.15 0.15 0.15 0.14 0.14 0.13
0.50 0.49 0.39 0.39 0.44 0.42 0.42 0.42 0.37 0.39 0.38 0.35 0.33 0.25 0.22 0.20 0.19 0.18 0.15 0.15 0.16 0.18 0.17 0.17 0.16 0.16 0.16 0.16 0.17 0.16 0.15 0.15 0.14 0.15 0.15 0.16 0.17 0.18 0.19 0.18 0.18 0.18 0.19 0.19

GFSNGP_prec_precacc_114.txt.gz
Total_Precipitation_Accumulation
0.01 0.01 0.00 0.01 0.00 0.00 0.02 0.07 0.26 0.13 0.01 0.00 0.00 0.01 0.02 0.06 0.07 0.08 0.25 0.31 0.17 0.13 0.20 0.21 0.29 0.34 0.37 0.31 0.30 0.37 0.42 0.48 0.43 0.57 0.94 0.99 1.04 0.90 0.70 0.49 0.41 0.32 0.25 0.19
0.02 0.00 0.00 0.00 0.00 0.00 0.00 0.00 0.00 0.00 0.00 0.00 0.00 0.00 0.00 0.01 0.03 0.15 0.33 0.24 0.23 0.15 0.15 0.20 0.30 0.33 0.35 0.38 0.32 0.29 0.29 0.30 0.49 0.63 0.55 0.60 0.54 0.40 0.26 0.21 0.22 0.20 0.19 0.18
0.09 0.02 0.05 0.05 0.00 0.00 0.00 0.00 0.00 0.00 0.00 0.00 0.00 0.03 0.06 0.08 0.09 0.11 0.11 0.06 0.14 0.14 0.11 0.22 0.22 0.28 0.31 0.38 0.41 0.26 0.19 0.21 0.28 0.28 0.26 0.20 0.14 0.14 0.18 0.20 0.17 0.15 0.13 0.12
0.26 0.16 0.25 0.03 0.00 0.00 0.00 0.01 0.01 0.02 0.01 0.01 0.01 0.11 0.09 0.04 0.03 0.04 0.03 0.06 0.06 0.07 0.05 0.11 0.17 0.25 0.29 0.33 0.41 0.42 0.24 0.12 0.09 0.07 0.05 0.06 0.11 0.17 0.17 0.19 0.16 0.15 0.21 0.31
0.41 0.26 0.12 0.02 0.03 0.08 0.08 0.15 0.11 0.08 0.07 0.04 0.04 0.10 0.10 0.04 0.06 0.08 0.06 0.05 0.01 0.01 0.01 0.02 0.08 0.18 0.41 0.39 0.43 0.41 0.32 0.22 0.08 0.04 0.06 0.11 0.17 0.20 0.18 0.17 0.22 0.24 0.29 0.32
0.50 0.33 0.10 0.05 0.06 0.03 0.07 0.28 0.29 0.22 0.25 0.22 0.14 0.26 0.18 0.09 0.10 0.07 0.03 0.00 0.00 0.00 0.00 0.02 0.07 0.19 0.19 0.19 0.26 0.24 0.19 0.20 0.20 0.12 0.12 0.15 0.13 0.11 0.12 0.17 0.23 0.26 0.31 0.30
0.33 0.50 0.11 0.01 0.05 0.07 0.35 0.62 0.38 0.22 0.25 0.15 0.18 0.24 0.19 0.18 0.05 0.00 0.00 0.00 0.00 0.00 0.00 0.00 0.05 0.17 0.41 0.36 0.27 0.29 0.22 0.23 0.21 0.17 0.14 0.08 0.08 0.11 0.15 0.19 0.20 0.21 0.20 0.15
0.58 0.62 0.18 0.07 0.27 0.53 0.54 0.24 0.22 0.21 0.11 0.11 0.14 0.21 0.19 0.05 0.02 0.00 0.00 0.00 0.00 0.00 0.00 0.01 0.02 0.05 0.19 0.41 0.41 0.34 0.22 0.22 0.28 0.30 0.19 0.09 0.06 0.08 0.10 0.14 0.18 0.16 0.18 0.19
0.41 0.28 0.08 0.11 0.31 0.41 0.27 0.19 0.17 0.16 0.14 0.22 0.30 0.19 0.07 0.04 0.01 0.00 0.00 0.00 0.00 0.01 0.02 0.02 0.00 0.00 0.05 0.11 0.19 0.28 0.35 0.42 0.39 0.33 0.39 0.38 0.29 0.26 0.23 0.19 0.18 0.20 0.22 0.28
0.33 0.10 0.11 0.17 0.18 0.23 0.37 0.22 0.16 0.23 0.34 0.36 0.25 0.16 0.11 0.04 0.02 0.01 0.01 0.01 0.02 0.03 0.02 0.01 0.00 0.01 0.02 0.04 0.07 0.09 0.14 0.17 0.23 0.38 0.32 0.34 0.44 0.47 0.51 0.57 0.55 0.62 0.68 0.73
0.78 0.91 0.47 0.19 0.16 0.17 0.22 0.33 0.30 0.24 0.23 0.27 0.36 0.31 0.26 0.23 0.09 0.03 0.05 0.06 0.05 0.07 0.05 0.03 0.04 0.03 0.04 0.08 0.12 0.12 0.10 0.10 0.13 0.13 0.14 0.14 0.21 0.29 0.32 0.51 0.53 0.62 0.71 0.81
0.73 0.58 0.83 0.43 0.40 0.43 0.40 0.30 0.20 0.15 0.23 0.17 0.09 0.10 0.15 0.19 0.29 0.30 0.22 0.19 0.17 0.14 0.09 0.08 0.09 0.10 0.10 0.11 0.14 0.16 0.18 0.22 0.28 0.20 0.23 0.27 0.37 0.73 0.84 0.93 0.96 0.96 1.08 1.16
0.23 0.20 0.40 0.56 0.44 0.25 0.26 0.21 0.10 0.06 0.05 0.02 0.02 0.05 0.15 0.31 0.41 0.42 0.40 0.33 0.29 0.32 0.30 0.17 0.13 0.14 0.14 0.13 0.14 0.19 0.21 0.25 0.35 0.39 0.48 0.54 0.60 0.65 0.96 1.09 0.93 0.80 0.69 0.54
0.07 0.12 0.23 0.24 0.23 0.18 0.15 0.19 0.10 0.05 0.06 0.06 0.06 0.05 0.11 0.29 0.82 1.22 1.12 0.78 0.54 0.44 0.43 0.49 0.52 0.61 0.62 0.54 0.51 0.58 0.70 0.80 0.73 0.78 0.79 0.79 0.80 0.83 0.77 0.74 0.73 0.67 0.53 0.43
0.02 0.05 0.12 0.07 0.04 0.07 0.06 0.06 0.04 0.06 0.12 0.15 0.09 0.11 0.23 0.39 0.57 0.84 1.33 1.46 1.39 1.31 1.35 1.25 1.20 1.58 1.57 1.44 1.34 1.31 1.20 1.14 1.04 1.01 0.91 0.80 0.71 0.60 0.50 0.44 0.40 0.37 0.29 0.23
0.01 0.01 0.02 0.04 0.04 0.05 0.04 0.05 0.08 0.08 0.03 0.02 0.08 0.20 0.17 0.28 0.37 0.46 0.72 0.97 1.12 1.46 1.75 1.77 1.81 1.82 1.48 1.29 1.08 0.97 0.89 0.75 0.58 0.48 0.46 0.43 0.39 0.34 0.33 0.31 0.31 0.30 0.28 0.28
0.01 0.02 0.04 0.05 0.08 0.08 0.07 0.04 0.02 0.03 0.02 0.04 0.06 0.08 0.08 0.15 0.28 0.60 0.92 0.99 1.13 1.27 1.29 1.17 1.16 0.96 0.72 0.63 0.54 0.48 0.44 0.41 0.34 0.28 0.25 0.24 0.25 0.26 0.25 0.27 0.26 0.22 0.25 0.23
0.01 0.02 0.07 0.12 0.07 0.01 0.00 0.01 0.03 0.04 0.06 0.10 0.23 0.36 0.41 0.48 0.70 1.05 1.38 1.32 0.87 0.79 0.84 0.79 0.60 0.44 0.36 0.36 0.29 0.21 0.18 0.16 0.16 0.16 0.15 0.17 0.18 0.18 0.18 0.19 0.21 0.20 0.20 0.16
0.10 0.09 0.05 0.02 0.02 0.02 0.03 0.05 0.09 0.14 0.22 0.29 0.39 0.65 0.82 0.90 0.86 0.82 0.82 0.78 0.79 0.64 0.67 0.40 0.29 0.21 0.18 0.19 0.17 0.18 0.17 0.17 0.16 0.13 0.14 0.15 0.14 0.19 0.27 0.27 0.24 0.24 0.22 0.19
0.04 0.04 0.04 0.05 0.06 0.08 0.12 0.20 0.25 0.34 0.45 0.42 0.47 0.57 0.57 0.64 0.55 0.56 0.51 0.46 0.41 0.33 0.23 0.18 0.16 0.14 0.12 0.10 0.07 0.10 0.12 0.15 0.13 0.14 0.20 0.24 0.31 0.29 0.22 0.20 0.21 0.22 0.22 0.25
0.26 0.10 0.11 0.14 0.18 0.28 0.38 0.43 0.38 0.48 0.66 0.53 0.43 0.56 0.62 0.78 0.74 0.65 0.47 0.35 0.32 0.19 0.16 0.13 0.09 0.07 0.06 0.08 0.08 0.12 0.19 0.22 0.28 0.31 0.26 0.25 0.21 0.19 0.20 0.18 0.20 0.21 0.21 0.21
0.59 0.61 0.50 0.46 0.47 0.58 0.63 0.60 0.45 0.49 0.54 0.60 0.63 0.62 0.58 0.66 0.61 0.54 0.40 0.29 0.25 0.18 0.15 0.13 0.09 0.08 0.10 0.13 0.16 0.19 0.22 0.24 0.22 0.19 0.20 0.20 0.20 0.20 0.17 0.16 0.17 0.17 0.17 0.17
0.79 0.84 0.88 0.78 0.68 0.78 0.85 0.73 0.74 0.60 0.65 0.64 0.62 0.59 0.47 0.49 0.42 0.27 0.27 0.22 0.15 0.13 0.14 0.14 0.11 0.12 0.12 0.17 0.22 0.22 0.22 0.19 0.17 0.17 0.18 0.19 0.20 0.20 0.19 0.17 0.15 0.16 0.15 0.15
0.77 0.70 0.75 0.77 0.65 0.48 0.58 0.74 0.64 0.59 0.53 0.56 0.54 0.50 0.38 0.30 0.30 0.24 0.18 0.16 0.16 0.16 0.16 0.16 0.10 0.09 0.14 0.21 0.19 0.18 0.19 0.16 0.15 0.17 0.17 0.17 0.19 0.18 0.18 0.16 0.15 0.12 0.13 0.13
0.62 0.57 0.52 0.52 0.50 0.55 0.48 0.47 0.44 0.50 0.47 0.51 0.49 0.38 0.28 0.23 0.25 0.24 0.19 0.19 0.15 0.16 0.18 0.15 0.09 0.11 0.16 0.18 0.17 0.17 0.18 0.16 0.16 0.19 0.21 0.19 0.17 0.17 0.16 0.15 0.14 0.14 0.14 0.12
0.62 0.61 0.56 0.48 0.49 0.46 0.43 0.42 0.44 0.52 0.45 0.42 0.38 0.30 0.27 0.23 0.20 0.18 0.15 0.14 0.10 0.11 0.14 0.17 0.15 0.16 0.16 0.16 0.16 0.16 0.16 0.15 0.15 0.16 0.17 0.16 0.16 0.16 0.15 0.15 0.15 0.14 0.14 0.13
0.51 0.49 0.39 0.39 0.44 0.43 0.42 0.43 0.37 0.40 0.38 0.36 0.35 0.28 0.25 0.23 0.22 0.21 0.18 0.16 0.16 0.18 0.17 0.17 0.16 0.16 0.16 0.16 0.17 0.16 0.15 0.15 0.14 0.15 0.15 0.16 0.17 0.18 0.19 0.18 0.18 0.18 0.19 0.19

GFSNGP_prec_precacc_117.txt.gz
Total_Precipitation_Accumulation
0.01 0.01 0.00 0.01 0.00 0.00 0.02 0.07 0.26 0.13 0.01 0.00 0.00 0.01 0.02 0.06 0.07 0.08 0.25 0.31 0.19 0.19 0.25 0.22 0.29 0.38 0.51 0.46 0.43 0.45 0.44 0.48 0.43 0.57 0.94 1.00 1.05 0.90 0.71 0.50 0.41 0.32 0.25 0.19
0.02 0.00 0.00 0.00 0.00 0.00 0.00 0.00 0.00 0.00 0.00 0.00 0.00 0.00 0.00 0.01 0.03 0.15 0.33 0.24 0.24 0.19 0.21 0.24 0.30 0.34 0.44 0.51 0.42 0.34 0.30 0.30 0.49 0.63 0.55 0.60 0.55 0.40 0.27 0.22 0.23 0.21 0.19 0.18
0.09 0.02 0.05 0.05 0.00 0.00 0.00 0.00 0.00 0.00 0.00 0.00 0.00 0.03 0.06 0.08 0.09 0.11 0.11 0.06 0.15 0.21 0.17 0.27 0.28 0.30 0.37 0.45 0.47 0.28 0.19 0.21 0.28 0.28 0.26 0.21 0.15 0.15 0.20 0.22 0.19 0.16 0.15 0.13
0.26 0.16 0.25 0.03 0.00 0.00 0.00 0.01 0.01 0.02 0.01 0.01 0.01 0.11 0.09 0.05 0.04 0.04 0.03 0.06 0.06 0.09 0.06 0.12 0.25 0.43 0.45 0.40 0.45 0.45 0.24 0.12 0.09 0.07 0.05 0.06 0.12 0.19 0.19 0.21 0.17 0.17 0.23 0.33
0.41 0.26 0.12 0.02 0.03 0.08 0.08 0.15 0.11 0.08 0.07 0.04 0.04 0.11 0.10 0.05 0.06 0.08 0.06 0.05 0.01 0.01 0.01 0.02 0.10 0.36 0.67 0.63 0.46 0.44 0.33 0.22 0.08 0.04 0.06 0.12 0.17 0.22 0.19 0.19 0.24 0.25 0.30 0.34
0.51 0.34 0.10 0.05 0.06 0.03 0.07 0.28 0.29 0.25 0.28 0.24 0.16 0.28 0.20 0.10 0.10 0.07 0.03 0.00 0.00 0.00 0.00 0.02 0.08 0.23 0.36 0.60 0.48 0.30 0.22 0.20 0.20 0.12 0.12 0.16 0.14 0.11 0.14 0.18 0.25 0.29 0.33 0.31
0.37 0.58 0.12 0.01 0.05 0.07 0.35 0.62 0.47 0.54 0.40 0.18 0.27 0.33 0.23 0.20 0.06 0.00 0.00 0.00 0.00 0.00 0.00 0.00 0.05 0.18 0.46 0.63 0.81 0.62 0.33 0.25 0.22 0.17 0.14 0.08 0.08 0.11 0.16 0.20 0.21 0.23 0.22 0.17
0.65 0.68 0.18 0.07 0.31 0.56 0.56 0.31 0.36 0.47 0.27 0.16 0.21 0.25 0.22 0.06 0.02 0.00 0.00 0.00 0.00 0.00 0.00 0.01 0.03 0.06 0.20 0.51 1.01 1.09 0.63 0.31 0.31 0.32 0.19 0.09 0.06 0.08 0.11 0.14 0.19 0.17 0.19 0.20
0.44 0.28 0.08 0.11 0.31 0.43 0.28 0.29 0.23 0.16 0.15 0.25 0.33 0.19 0.07 0.04 0.01 0.00 0.00 0.00 0.00 0.01 0.02 0.02 0.01 0.02 0.07 0.15 0.30 0.77 1.08 0.84 0.49 0.38 0.42 0.41 0.31 0.28 0.24 0.19 0.19 0.20 0.23 0.29
0.40 0.12 0.12 0.17 0.19 0.24 0.39 0.33 0.18 0.23 0.35 0.37 0.25 0.16 0.11 0.04 0.02 0.01 0.01 0.01 0.02 0.03 0.02 0.01 0.00 0.02 0.04 0.06 0.12 0.16 0.37 0.58 0.52 0.52 0.40 0.47 0.67 0.67 0.77 0.82 0.64 0.66 0.72 0.75
0.92 1.04 0.62 0.26 0.21 0.17 0.23 0.33 0.31 0.24 0.23 0.27 0.36 0.31 0.26 0.23 0.09 0.03 0.05 0.06 0.05 0.07 0.06 0.03 0.04 0.03 0.05 0.10 0.15 0.16 0.17 0.20 0.33 0.59 0.43 0.26 0.33 0.47 0.44 0.70 0.73 0.68 0.75 0.84
0.91 0.89 1.19 0.77 0.82 0.59 0.45 0.31 0.24 0.15 0.23 0.17 0.09 0.10 0.15 0.19 0.29 0.30 0.22 0.19 0.17 0.14 0.09 0.08 0.09 0.10 0.10 0.11 0.16 0.19 0.22 0.28 0.38 0.45 0.48 0.34 0.39 0.77 0.92 1.02 1.04 1.04 1.13 1.19
0.38 0.49 0.68 0.94 0.69 0.33 0.33 0.38 0.19 0.08 0.07 0.02 0.02 0.05 0.15 0.31 0.41 0.42 0.40 0.33 0.29 0.32 0.30 0.17 0.13 0.15 0.15 0.14 0.15 0.20 0.24 0.28 0.42 0.51 0.60 0.59 0.65 0.71 1.08 1.25 1.07 0.91 0.78 0.62
0.09 0.13 0.24 0.24 0.24 0.18 0.15 0.21 0.13 0.05 0.06 0.06 0.06 0.05 0.11 0.29 0.82 1.22 1.13 0.78 0.54 0.44 0.44 0.51 0.53 0.62 0.64 0.56 0.52 0.58 0.71 0.83 0.76 0.81 0.83 0.85 0.86 0.90 0.85 0.82 0.83 0.82 0.68 0.57
0.02 0.05 0.13 0.08 0.04 0.07 0.06 0.06 0.04 0.06 0.12 0.15 0.09 0.11 0.23 0.39 0.57 0.84 1.33 1.47 1.39 1.31 1.36 1.26 1.21 1.59 1.59 1.48 1.39 1.34 1.21 1.16 1.07 1.04 0.95 0.84 0.75 0.64 0.54 0.47 0.44 0.44 0.36 0.30
0.01 0.01 0.02 0.04 0.04 0.05 0.04 0.05 0.08 0.08 0.03 0.02 0.08 0.20 0.17 0.28 0.37 0.46 0.73 0.97 1.12 1.46 1.75 1.78 1.82 1.84 1.51 1.33 1.12 1.02 0.94 0.81 0.62 0.52 0.52 0.48 0.45 0.41 0.40 0.37 0.36 0.34 0.30 0.30
0.01 0.02 0.04 0.05 0.08 0.08 0.07 0.05 0.03 0.03 0.03 0.04 0.07 0.09 0.08 0.15 0.29 0.60 0.93 1.01 1.15 1.28 1.30 1.19 1.18 0.99 0.76 0.67 0.58 0.51 0.47 0.46 0.39 0.33 0.31 0.31 0.32 0.32 0.31 0.31 0.28 0.24 0.25 0.23
0.01 0.02 0.07 0.12 0.07 0.01 0.01 0.01 0.03 0.05 0.07 0.11 0.24 0.37 0.42 0.49 0.70 1.06 1.39 1.34 0.90 0.81 0.86 0.81 0.62 0.46 0.40 0.42 0.33 0.25 0.20 0.20 0.21 0.20 0.19 0.21 0.24 0.24 0.22 0.21 0.21 0.21 0.20 0.16
0.10 0.09 0.05 0.02 0.03 0.03 0.03 0.05 0.09 0.14 0.22 0.29 0.39 0.66 0.83 0.91 0.87 0.83 0.84 0.79 0.80 0.66 0.70 0.42 0.31 0.23 0.21 0.23 0.20 0.21 0.20 0.20 0.18 0.16 0.18 0.18 0.16 0.20 0.27 0.27 0.24 0.24 0.22 0.19
0.04 0.04 0.04 0.05 0.06 0.08 0.12 0.20 0.26 0.35 0.46 0.43 0.48 0.58 0.58 0.65 0.56 0.57 0.52 0.47 0.43 0.35 0.25 0.20 0.17 0.16 0.14 0.13 0.09 0.11 0.14 0.16 0.15 0.16 0.21 0.24 0.31 0.29 0.22 0.20 0.21 0.22 0.22 0.25
0.26 0.10 0.11 0.14 0.18 0.28 0.38 0.43 0.38 0.49 0.66 0.54 0.44 0.57 0.62 0.79 0.75 0.66 0.48 0.36 0.34 0.21 0.18 0.15 0.10 0.08 0.07 0.08 0.08 0.12 0.19 0.23 0.28 0.31 0.26 0.25 0.22 0.19 0.20 0.18 0.20 0.21 0.21 0.21
0.59 0.61 0.50 0.46 0.47 0.58 0.63 0.61 0.46 0.50 0.54 0.61 0.64 0.63 0.59 0.67 0.62 0.55 0.41 0.30 0.27 0.20 0.17 0.15 0.10 0.08 0.10 0.13 0.16 0.19 0.22 0.24 0.22 0.19 0.20 0.20 0.20 0.20 0.17 0.16 0.17 0.17 0.17 0.17
0.79 0.84 0.88 0.78 0.68 0.78 0.85 0.73 0.74 0.61 0.65 0.65 0.62 0.60 0.48 0.50 0.43 0.27 0.28 0.24 0.16 0.15 0.15 0.15 0.11 0.12 0.12 0.17 0.22 0.22 0.22 0.19 0.17 0.17 0.18 0.19 0.20 0.20 0.19 0.17 0.15 0.16 0.15 0.15
0.77 0.70 0.75 0.77 0.65 0.48 0.58 0.75 0.64 0.60 0.53 0.56 0.55 0.51 0.39 0.31 0.31 0.25 0.19 0.18 0.18 0.17 0.17 0.16 0.10 0.09 0.14 0.21 0.19 0.18 0.19 0.16 0.15 0.17 0.17 0.17 0.19 0.18 0.18 0.16 0.15 0.12 0.13 0.13
0.62 0.57 0.52 0.52 0.50 0.55 0.48 0.48 0.44 0.50 0.47 0.52 0.50 0.39 0.29 0.24 0.26 0.26 0.21 0.21 0.16 0.16 0.18 0.15 0.09 0.11 0.16 0.18 0.17 0.17 0.18 0.16 0.16 0.19 0.21 0.19 0.17 0.17 0.16 0.15 0.14 0.14 0.14 0.12
0.62 0.61 0.56 0.48 0.49 0.46 0.43 0.42 0.45 0.52 0.46 0.43 0.39 0.32 0.29 0.24 0.22 0.19 0.17 0.15 0.10 0.11 0.14 0.17 0.15 0.16 0.16 0.16 0.16 0.16 0.16 0.15 0.15 0.16 0.17 0.16 0.16 0.16 0.15 0.15 0.15 0.14 0.14 0.13
0.51 0.49 0.39 0.40 0.44 0.43 0.43 0.43 0.38 0.41 0.40 0.37 0.36 0.30 0.27 0.25 0.24 0.23 0.20 0.17 0.17 0.18 0.17 0.17 0.16 0.16 0.16 0.16 0.17 0.16 0.15 0.15 0.14 0.15 0.15 0.16 0.17 0.18 0.19 0.18 0.18 0.18 0.19 0.19

GFSNGP_prec_precacc_120.txt.gz
Total_Precipitation_Accumulation
0.01 0.01 0.01 0.01 0.00 0.00 0.02 0.07 0.26 0.13 0.01 0.00 0.00 0.01 0.02 0.06 0.07 0.08 0.25 0.31 0.19 0.19 0.25 0.23 0.30 0.38 0.52 0.48 0.48 0.53 0.55 0.56 0.45 0.58 0.94 1.00 1.05 0.90 0.71 0.50 0.41 0.33 0.26 0.19
0.02 0.00 0.00 0.00 0.00 0.00 0.00 0.00 0.00 0.00 0.00 0.00 0.00 0.00 0.00 0.01 0.03 0.15 0.33 0.24 0.24 0.19 0.21 0.25 0.31 0.34 0.46 0.55 0.49 0.46 0.42 0.36 0.50 0.64 0.56 0.61 0.55 0.40 0.27 0.22 0.23 0.21 0.19 0.18
0.10 0.02 0.05 0.05 0.00 0.00 0.00 0.00 0.00 0.00 0.00 0.00 0.00 0.03 0.06 0.08 0.09 0.11 0.11 0.06 0.15 0.21 0.17 0.27 0.29 0.30 0.42 0.55 0.54 0.39 0.31 0.27 0.29 0.29 0.27 0.21 0.15 0.15 0.20 0.22 0.19 0.16 0.15 0.13
0.27 0.17 0.25 0.03 0.00 0.00 0.00 0.01 0.01 0.02 0.01 0.01 0.01 0.11 0.09 0.05 0.04 0.05 0.03 0.06 0.06 0.09 0.06 0.12 0.26 0.44 0.51 0.54 0.57 0.54 0.34 0.19 0.10 0.07 0.06 0.07 0.12 0.19 0.19 0.21 0.18 0.17 0.23 0.33
0.42 0.26 0.12 0.02 0.03 0.08 0.08 0.15 0.11 0.08 0.07 0.04 0.04 0.11 0.11 0.07 0.07 0.08 0.06 0.05 0.01 0.01 0.01 0.02 0.10 0.37 0.75 0.87 0.65 0.59 0.42 0.28 0.09 0.04 0.07 0.12 0.17 0.22 0.19 0.19 0.24 0.25 0.30 0.34
0.51 0.35 0.10 0.05 0.06 0.04 0.08 0.29 0.30 0.25 0.29 0.25 0.16 0.29 0.24 0.12 0.10 0.07 0.03 0.00 0.00 0.00 0.00 0.02 0.08 0.23 0.39 0.74 0.81 0.53 0.41 0.28 0.22 0.13 0.12 0.16 0.14 0.12 0.14 0.19 0.25 0.30 0.33 0.31
0.41 0.67 0.13 0.01 0.06 0.08 0.35 0.63 0.48 0.64 0.78 0.41 0.38 0.53 0.27 0.23 0.07 0.00 0.00 0.00 0.00 0.00 0.00 0.00 0.05 0.18 0.47 0.69 1.04 0.90 0.57 0.40 0.27 0.17 0.14 0.09 0.09 0.12 0.16 0.20 0.21 0.23 0.23 0.18
0.73 0.76 0.22 0.08 0.35 0.60 0.59 0.34 0.44 0.82 0.66 0.32 0.29 0.41 0.35 0.09 0.02 0.00 0.00 0.00 0.00 0.00 0.00 0.01 0.03 0.06 0.20 0.53 1.14 1.50 1.00 0.60 0.42 0.33 0.20 0.10 0.07 0.09 0.12 0.15 0.19 0.18 0.20 0.20
0.51 0.31 0.10 0.12 0.32 0.44 0.32 0.34 0.40 0.22 0.18 0.31 0.36 0.19 0.07 0.04 0.01 0.00 0.00 0.00 0.00 0.01 0.02 0.02 0.01 0.02 0.07 0.15 0.34 1.09 1.56 1.40 0.90 0.45 0.43 0.42 0.33 0.29 0.25 0.20 0.19 0.20 0.23 0.29
0.57 0.25 0.21 0.22 0.21 0.26 0.40 0.35 0.20 0.24 0.35 0.37 0.25 0.16 0.11 0.04 0.02 0.01 0.01 0.01 0.02 0.03 0.02 0.01 0.01 0.02 0.04 0.06 0.14 0.31 0.73 1.07 1.29 1.11 0.55 0.52 0.72 0.70 0.80 0.84 0.65 0.66 0.72 0.75
1.13 1.30 0.77 0.40 0.37 0.30 0.29 0.38 0.41 0.26 0.23 0.27 0.36 0.31 0.26 0.23 0.09 0.03 0.05 0.06 0.05 0.07 0.06 0.03 0.04 0.04 0.06 0.11 0.16 0.20 0.36 0.60 0.71 1.15 0.94 0.45 0.45 0.67 0.70 0.91 0.98 0.86 0.80 0.87
1.07 1.12 1.39 1.01 1.19 0.90 0.64 0.37 0.28 0.16 0.23 0.17 0.09 0.10 0.15 0.19 0.29 0.30 0.22 0.19 0.17 0.14 0.09 0.09 0.09 0.11 0.11 0.13 0.18 0.22 0.28 0.52 0.65 0.73 1.08 0.87 0.62 0.92 1.13 1.35 1.34 1.29 1.36 1.34
0.43 0.57 0.80 1.02 0.74 0.36 0.34 0.39 0.20 0.08 0.07 0.02 0.02 0.05 0.15 0.31 0.41 0.42 0.40 0.33 0.29 0.32 0.30 0.17 0.14 0.15 0.16 0.15 0.16 0.23 0.29 0.34 0.57 0.73 0.87 0.93 0.84 0.81 1.15 1.33 1.17 1.01 0.88 0.72
0.09 0.13 0.25 0.24 0.25 0.18 0.15 0.21 0.13 0.05 0.06 0.06 0.06 0.05 0.11 0.29 0.82 1.22 1.13 0.78 0.55 0.44 0.44 0.51 0.54 0.64 0.67 0.59 0.54 0.59 0.74 0.89 0.80 0.89 1.00 1.19 1.17 1.01 0.90 0.91 0.99 1.05 0.93 0.80
0.02 0.05 0.14 0.08 0.05 0.08 0.06 0.06 0.04 0.06 0.12 0.15 0.09 0.11 0.24 0.40 0.57 0.84 1.33 1.47 1.39 1.31 1.36 1.26 1.21 1.61 1.61 1.49 1.42 1.37 1.22 1.19 1.10 1.10 1.03 0.96 0.99 0.85 0.70 0.62 0.58 0.62 0.53 0.40
0.01 0.01 0.02 0.04 0.04 0.05 0.04 0.05 0.08 0.08 0.03 0.02 0.09 0.20 0.17 0.29 0.37 0.47 0.73 0.97 1.13 1.47 1.76 1.78 1.83 1.86 1.53 1.35 1.14 1.08 1.00 0.85 0.65 0.55 0.58 0.56 0.53 0.50 0.50 0.46 0.42 0.38 0.34 0.33
0.01 0.03 0.04 0.05 0.08 0.08 0.07 0.05 0.03 0.03 0.03 0.04 0.07 0.09 0.08 0.15 0.29 0.60 0.94 1.02 1.15 1.29 1.31 1.19 1.19 1.00 0.77 0.70 0.61 0.55 0.50 0.50 0.43 0.36 0.34 0.35 0.38 0.39 0.37 0.37 0.32 0.27 0.28 0.24
0.01 0.02 0.07 0.12 0.07 0.01 0.01 0.01 0.03 0.05 0.07 0.11 0.24 0.37 0.42 0.49 0.71 1.06 1.39 1.34 0.91 0.82 0.87 0.82 0.63 0.47 0.41 0.45 0.38 0.30 0.24 0.23 0.25 0.23 0.23 0.26 0.29 0.29 0.28 0.26 0.24 0.22 0.21 0.16
0.10 0.09 0.05 0.02 0.03 0.03 0.03 0.05 0.09 0.14 0.22 0.29 0.39 0.66 0.84 0.91 0.87 0.83 0.84 0.79 0.81 0.66 0.71 0.43 0.32 0.23 0.21 0.24 0.22 0.25 0.24 0.23 0.22 0.20 0.22 0.22 0.19 0.23 0.29 0.28 0.25 0.25 0.22 0.19
0.04 0.04 0.04 0.05 0.06 0.08 0.12 0.20 0.26 0.35 0.46 0.43 0.48 0.58 0.58 0.66 0.56 0.57 0.52 0.47 0.43 0.36 0.26 0.21 0.18 0.17 0.15 0.15 0.10 0.13 0.16 0.19 0.17 0.18 0.24 0.27 0.32 0.29 0.22 0.20 0.21 0.22 0.22 0.25
0.26 0.10 0.11 0.14 0.18 0.28 0.38 0.43 0.39 0.49 0.67 0.54 0.44 0.57 0.62 0.80 0.75 0.66 0.48 0.36 0.35 0.22 0.19 0.16 0.11 0.08 0.08 0.10 0.10 0.14 0.21 0.24 0.29 0.31 0.27 0.25 0.22 0.19 0.20 0.18 0.20 0.21 0.21 0.21
0.59 0.61 0.50 0.46 0.47 0.58 0.63 0.61 0.46 0.50 0.54 0.61 0.64 0.63 0.59 0.67 0.62 0.55 0.42 0.31 0.27 0.21 0.17 0.15 0.10 0.09 0.10 0.13 0.16 0.19 0.22 0.24 0.22 0.19 0.20 0.20 0.20 0.20 0.17 0.16 0.17 0.17 0.17 0.17
0.79 0.84 0.88 0.78 0.68 0.79 0.85 0.73 0.74 0.61 0.66 0.65 0.63 0.61 0.49 0.51 0.43 0.28 0.28 0.24 0.16 0.16 0.16 0.16 0.12 0.12 0.12 0.17 0.22 0.22 0.22 0.19 0.17 0.17 0.18 0.19 0.20 0.20 0.19 0.17 0.15 0.16 0.15 0.15
0.77 0.70 0.75 0.77 0.65 0.48 0.58 0.75 0.64 0.60 0.54 0.57 0.56 0.52 0.40 0.32 0.32 0.26 0.20 0.18 0.18 0.18 0.17 0.16 0.10 0.09 0.14 0.21 0.19 0.18 0.19 0.16 0.15 0.17 0.17 0.17 0.19 0.18 0.18 0.16 0.15 0.12 0.13 0.13
0.62 0.57 0.52 0.52 0.50 0.55 0.48 0.48 0.44 0.50 0.48 0.53 0.51 0.40 0.30 0.25 0.27 0.27 0.22 0.22 0.17 0.16 0.18 0.15 0.09 0.11 0.16 0.18 0.17 0.17 0.18 0.16 0.16 0.19 0.21 0.19 0.17 0.17 0.16 0.15 0.14 0.14 0.14 0.12
0.62 0.61 0.56 0.48 0.49 0.46 0.43 0.43 0.45 0.53 0.47 0.44 0.41 0.33 0.31 0.26 0.23 0.21 0.18 0.16 0.10 0.11 0.15 0.17 0.15 0.16 0.16 0.16 0.16 0.16 0.16 0.15 0.15 0.16 0.17 0.16 0.16 0.16 0.15 0.15 0.15 0.14 0.14 0.13
0.51 0.49 0.39 0.40 0.44 0.43 0.43 0.43 0.38 0.42 0.40 0.38 0.38 0.31 0.29 0.27 0.26 0.25 0.21 0.19 0.17 0.18 0.18 0.17 0.16 0.16 0.16 0.16 0.17 0.16 0.15 0.15 0.14 0.15 0.15 0.16 0.17 0.18 0.19 0.18 0.18 0.18 0.19 0.19

GFSNGP_prec_precacc_126.txt.gz
Total_Precipitation_Accumulation
0.02 0.01 0.01 0.01 0.00 0.01 0.03 0.08 0.26 0.14 0.16 0.25 0.20 0.09 0.03 0.06 0.07 0.08 0.25 0.31 0.19 0.19 0.25 0.23 0.30 0.38 0.52 0.48 0.48 0.54 0.57 0.59 0.50 0.63 1.00 1.07 1.10 0.93 0.74 0.53 0.42 0.33 0.27 0.21
0.05 0.00 0.00 0.00 0.00 0.00 0.00 0.00 0.00 0.00 0.01 0.00 0.00 0.00 0.00 0.01 0.03 0.15 0.33 0.24 0.24 0.19 0.21 0.25 0.31 0.34 0.46 0.55 0.49 0.46 0.45 0.41 0.57 0.72 0.64 0.69 0.62 0.45 0.29 0.25 0.25 0.21 0.20 0.19
0.15 0.02 0.06 0.06 0.00 0.00 0.00 0.00 0.00 0.00 0.00 0.00 0.00 0.03 0.06 0.08 0.09 0.11 0.12 0.06 0.15 0.21 0.17 0.27 0.29 0.30 0.42 0.55 0.55 0.40 0.34 0.34 0.37 0.37 0.36 0.30 0.21 0.19 0.23 0.24 0.20 0.17 0.15 0.13
0.33 0.22 0.31 0.04 0.01 0.00 0.00 0.01 0.01 0.02 0.01 0.01 0.02 0.11 0.09 0.05 0.05 0.07 0.05 0.06 0.06 0.09 0.06 0.12 0.26 0.44 0.51 0.54 0.59 0.55 0.36 0.26 0.18 0.14 0.14 0.16 0.21 0.22 0.22 0.22 0.18 0.17 0.23 0.33
0.46 0.30 0.16 0.03 0.05 0.08 0.08 0.15 0.13 0.10 0.08 0.04 0.05 0.11 0.12 0.09 0.08 0.09 0.06 0.05 0.01 0.01 0.01 0.02 0.10 0.37 0.75 0.87 0.66 0.62 0.46 0.34 0.19 0.14 0.16 0.26 0.34 0.25 0.21 0.20 0.25 0.26 0.30 0.35
0.56 0.46 0.15 0.13 0.13 0.05 0.08 0.36 0.45 0.28 0.29 0.26 0.17 0.30 0.30 0.14 0.11 0.07 0.03 0.00 0.00 0.00 0.00 0.02 0.08 0.23 0.39 0.74 0.85 0.60 0.54 0.41 0.39 0.29 0.28 0.35 0.30 0.16 0.15 0.19 0.26 0.31 0.34 0.32
0.53 0.84 0.25 0.13 0.07 0.09 0.45 0.91 0.67 0.66 0.84 0.67 0.70 0.76 0.47 0.34 0.15 0.04 0.00 0.00 0.00 0.00 0.00 0.00 0.05 0.18 0.47 0.69 1.06 1.04 0.70 0.62 0.48 0.37 0.37 0.29 0.22 0.15 0.17 0.22 0.23 0.25 0.24 0.18
0.95 1.05 0.63 0.19 0.38 0.78 0.83 0.41 0.51 0.98 1.11 0.94 0.82 0.66 0.43 0.14 0.06 0.02 0.00 0.00 0.00 0.00 0.00 0.01 0.03 0.06 0.20 0.53 1.15 1.59 1.27 0.84 0.78 0.64 0.39 0.27 0.19 0.13 0.14 0.18 0.21 0.20 0.21 0.22
0.82 0.62 0.38 0.27 0.46 0.58 0.41 0.46 0.56 0.48 0.56 0.43 0.38 0.19 0.07 0.04 0.01 0.00 0.00 0.00 0.00 0.01 0.02 0.02 0.01 0.02 0.07 0.16 0.35 1.17 1.83 1.81 1.35 0.88 0.75 0.67 0.55 0.37 0.30 0.26 0.23 0.23 0.24 0.30
0.87 0.48 0.33 0.38 0.31 0.39 0.60 0.55 0.35 0.37 0.39 0.37 0.25 0.16 0.11 0.04 0.02 0.01 0.01 0.01 0.02 0.03 0.02 0.01 0.01 0.02 0.04 0.07 0.15 0.41 0.90 1.49 1.86 1.87 1.12 0.97 1.09 0.89 0.87 0.90 0.72 0.70 0.74 0.76
1.27 1.40 0.86 0.48 0.50 0.51 0.50 0.55 0.57 0.34 0.24 0.27 0.36 0.31 0.26 0.23 0.09 0.03 0.05 0.06 0.05 0.07 0.06 0.03 0.04 0.04 0.06 0.12 0.17 0.24 0.55 0.96 1.26 1.93 1.90 1.07 0.89 0.98 0.85 1.07 1.10 0.91 0.83 0.89
1.12 1.18 1.47 1.06 1.25 0.97 0.70 0.40 0.29 0.17 0.23 0.17 0.09 0.10 0.15 0.19 0.29 0.30 0.22 0.19 0.17 0.14 0.09 0.09 0.09 0.11 0.12 0.15 0.21 0.25 0.46 0.87 1.16 1.43 2.00 1.95 1.33 1.41 1.61 1.74 1.66 1.62 1.69 1.56
0.45 0.57 0.82 1.05 0.74 0.36 0.34 0.39 0.20 0.08 0.07 0.02 0.02 0.05 0.15 0.31 0.41 0.43 0.40 0.34 0.30 0.33 0.31 0.19 0.14 0.16 0.18 0.19 0.20 0.27 0.38 0.51 0.87 1.27 1.64 1.81 1.82 1.54 1.51 1.66 1.58 1.45 1.28 1.11
0.09 0.13 0.25 0.24 0.25 0.18 0.15 0.21 0.13 0.05 0.06 0.06 0.06 0.05 0.11 0.30 0.83 1.22 1.13 0.79 0.56 0.44 0.45 0.52 0.55 0.66 0.70 0.67 0.61 0.64 0.80 1.06 1.10 1.25 1.59 1.90 2.01 1.84 1.61 1.35 1.27 1.38 1.28 1.19
0.02 0.05 0.14 0.08 0.05 0.08 0.06 0.06 0.04 0.06 0.12 0.15 0.09 0.11 0.24 0.40 0.58 0.85 1.34 1.47 1.40 1.32 1.37 1.26 1.22 1.63 1.67 1.55 1.50 1.48 1.28 1.26 1.30 1.43 1.41 1.46 1.61 1.62 1.41 1.25 1.17 1.15 1.03 0.85
0.01 0.01 0.02 0.04 0.04 0.05 0.04 0.05 0.08 0.08 0.03 0.02 0.09 0.20 0.18 0.29 0.38 0.47 0.74 0.98 1.14 1.48 1.78 1.80 1.84 1.88 1.58 1.41 1.19 1.14 1.10 0.93 0.73 0.72 0.91 0.99 0.96 1.05 1.13 1.09 1.06 0.99 0.87 0.83
0.01 0.03 0.04 0.05 0.08 0.08 0.07 0.05 0.03 0.03 0.03 0.04 0.07 0.09 0.09 0.16 0.30 0.61 0.95 1.03 1.16 1.31 1.33 1.21 1.21 1.02 0.80 0.75 0.67 0.61 0.58 0.60 0.49 0.45 0.45 0.49 0.64 0.74 0.77 0.75 0.71 0.64 0.58 0.47
0.01 0.02 0.07 0.12 0.07 0.01 0.01 0.01 0.03 0.05 0.08 0.12 0.24 0.37 0.42 0.50 0.72 1.07 1.40 1.36 0.93 0.83 0.89 0.84 0.65 0.48 0.42 0.47 0.42 0.35 0.31 0.31 0.33 0.31 0.34 0.37 0.40 0.41 0.41 0.42 0.41 0.37 0.35 0.27
0.10 0.09 0.05 0.02 0.03 0.03 0.03 0.05 0.09 0.15 0.23 0.30 0.40 0.67 0.84 0.92 0.88 0.85 0.85 0.80 0.82 0.68 0.74 0.46 0.34 0.24 0.22 0.26 0.23 0.27 0.28 0.28 0.27 0.26 0.28 0.30 0.28 0.31 0.37 0.35 0.30 0.28 0.25 0.22
0.04 0.04 0.04 0.05 0.06 0.08 0.12 0.20 0.26 0.36 0.47 0.44 0.49 0.59 0.60 0.66 0.57 0.58 0.54 0.48 0.45 0.39 0.28 0.24 0.20 0.18 0.16 0.16 0.11 0.14 0.19 0.23 0.20 0.23 0.29 0.31 0.37 0.34 0.26 0.21 0.22 0.23 0.23 0.25
0.26 0.10 0.11 0.14 0.18 0.28 0.38 0.44 0.39 0.50 0.67 0.54 0.45 0.58 0.64 0.81 0.76 0.67 0.51 0.38 0.36 0.24 0.20 0.17 0.12 0.09 0.09 0.11 0.11 0.16 0.23 0.27 0.31 0.34 0.30 0.28 0.24 0.21 0.22 0.20 0.21 0.22 0.22 0.21
0.59 0.61 0.50 0.46 0.47 0.58 0.63 0.61 0.46 0.50 0.55 0.62 0.65 0.64 0.61 0.71 0.64 0.57 0.42 0.32 0.29 0.22 0.18 0.16 0.11 0.10 0.11 0.14 0.17 0.21 0.24 0.26 0.23 0.20 0.21 0.21 0.21 0.20 0.18 0.17 0.17 0.17 0.18 0.18
0.79 0.85 0.88 0.78 0.68 0.79 0.86 0.74 0.74 0.62 0.66 0.66 0.64 0.62 0.51 0.53 0.45 0.31 0.31 0.25 0.18 0.17 0.17 0.16 0.12 0.12 0.12 0.18 0.23 0.23 0.23 0.19 0.17 0.17 0.18 0.19 0.20 0.20 0.19 0.17 0.16 0.16 0.15 0.15
0.78 0.70 0.75 0.77 0.65 0.49 0.59 0.76 0.65 0.61 0.54 0.59 0.57 0.53 0.42 0.38 0.36 0.27 0.22 0.20 0.20 0.18 0.18 0.16 0.10 0.09 0.14 0.21 0.20 0.19 0.19 0.17 0.15 0.17 0.17 0.18 0.19 0.18 0.18 0.16 0.15 0.12 0.14 0.13
0.63 0.57 0.54 0.53 0.50 0.56 0.49 0.48 0.45 0.52 0.49 0.56 0.53 0.43 0.32 0.27 0.30 0.30 0.25 0.24 0.19 0.17 0.18 0.15 0.10 0.11 0.16 0.18 0.18 0.18 0.19 0.17 0.16 0.19 0.21 0.20 0.18 0.17 0.16 0.15 0.15 0.14 0.14 0.12
0.62 0.62 0.56 0.49 0.50 0.47 0.44 0.43 0.46 0.55 0.47 0.47 0.43 0.36 0.34 0.29 0.26 0.23 0.21 0.18 0.12 0.13 0.16 0.18 0.16 0.16 0.16 0.16 0.16 0.16 0.16 0.15 0.15 0.17 0.17 0.16 0.17 0.16 0.15 0.15 0.15 0.14 0.14 0.13
0.52 0.50 0.39 0.40 0.44 0.44 0.43 0.44 0.40 0.44 0.42 0.41 0.41 0.34 0.32 0.30 0.28 0.28 0.25 0.23 0.21 0.21 0.20 0.18 0.17 0.16 0.16 0.16 0.17 0.16 0.15 0.15 0.14 0.15 0.15 0.16 0.17 0.19 0.19 0.18 0.18 0.19 0.19 0.19